Flint, MI

9:54 AM EDT on October 01, 2016 (GMT -0400)
Bishop International

Weather History for KFNT - June, 2012

Change the Weather History Date:

Wednesday, June 6, 2012

  Actual Average Record
Temperature  
Mean Temperature 60 °F 64 °F  
Max Temperature 78 °F 75 °F 100 °F (1925)
Min Temperature 42 °F 53 °F 34 °F (1998)
Degree Days  
Heating Degree Days 5 3  
Month to date heating degree days 34 25  
Since 1 June heating degree days 34 25  
Since 1 July heating degree days 5437 6912  
Cooling Degree Days 0 2  
Month to date cooling degree days 1 12  
Year to date cooling degree days 89 44  
Since 1 June cooling degree days 1 12  
Growing Degree Days 10 (Base 50)    
Moisture  
Dew Point 46 °F    
Average Humidity 65    
Maximum Humidity 96    
Minimum Humidity 33    
Precipitation  
Precipitation 0.00 in 0.10 in 1.55 in (1928)
Month to date precipitation 0.58 0.61  
Year to date precipitation 14.76 11.60  
Snow  
Snow 0.00 in 0.00 in 0.00 in ()
Month to date snowfall 0.0 0.0  
Since 1 June snowfall 0.0 0.0  
Since 1 July snowfall 33.2 47.4  
Snow Depth 0.00 in    
Sea Level Pressure  
Sea Level Pressure 30.05 in    
Wind  
Wind Speed 5 mph (NW)    
Max Wind Speed 20 mph    
Max Gust Speed 25 mph    
Visibility 9 miles    
Events      
T = Trace of Precipitation, MM = Missing Value Source: NWS Daily Summary

Daily Weather History Graph

Daily Weather History Graph

Search for Another Location

Airport or City:

Trip Planner

Search our weather history database for the weather conditions in past years. The results will help you decide how hot, cold, wet, or windy it might be!

Date:

Astronomy

Jun. 06, 2012 Rise Set
Actual Time 5:56 AM EDT 9:11 PM EDT
Civil Twilight 5:21 AM EDT 9:46 PM EDT
Nautical Twilight 4:36 AM EDT 10:31 PM EDT
Astronomical Twilight 3:41 AM EDT 11:26 PM EDT
Moon 11:19 PM EDT (6/6) 8:18 AM EDT (6/6)
Length of Visible Light 16h 24m
Length of Day
15h 14m
Waning Gibbous, 93% of the Moon is Illuminated
Jun 6
Waning Gibbous
Jun 11
Last Quarter
Jun 19
New
Jun 26
First Quarter
Jul 3
Full

Hourly Weather History & Observations

Time (EDT) Temp. Dew Point Humidity Pressure Visibility Wind Dir Wind Speed Gust Speed Precip Events Conditions
12:53 AM 50.0 °F 46.0 °F 86% 30.04 in 10.0 mi Calm Calm - N/A   Clear
1:53 AM 48.0 °F 45.0 °F 89% 30.03 in 9.0 mi Calm Calm - N/A   Clear
2:53 AM 48.0 °F 46.0 °F 93% 30.04 in 10.0 mi Calm Calm - N/A   Clear
3:53 AM 46.0 °F 43.0 °F 89% 30.04 in 7.0 mi Calm Calm - N/A   Clear
4:53 AM 43.0 °F 41.0 °F 93% 30.04 in 2.0 mi Calm Calm - N/A   Clear
4:56 AM 42.8 °F 41.0 °F 93% 30.04 in 0.8 mi Calm Calm - N/A   Clear
5:18 AM 46.4 °F 42.8 °F 87% 30.05 in 2.0 mi Calm Calm - N/A   Clear
5:25 AM 46.4 °F 44.6 °F 93% 30.05 in 10.0 mi Calm Calm - N/A   Clear
5:53 AM 44.1 °F 42.1 °F 93% 30.06 in 5.0 mi Calm Calm - N/A   Clear
6:13 AM 42.8 °F 41.0 °F 93% 30.05 in 1.8 mi Calm Calm - N/A   Clear
6:21 AM 42.8 °F 41.0 °F 93% 30.06 in 10.0 mi Calm Calm - N/A   Clear
6:53 AM 46.9 °F 45.0 °F 93% 30.07 in 10.0 mi Calm Calm - N/A   Clear
7:53 AM 54.0 °F 48.9 °F 83% 30.07 in 10.0 mi West 3.5 mph - N/A   Clear
8:53 AM 62.1 °F 50.0 °F 65% 30.09 in 10.0 mi Calm Calm - N/A   Clear
9:53 AM 64.9 °F 48.9 °F 56% 30.09 in 10.0 mi West 5.8 mph - N/A   Scattered Clouds
10:53 AM 70.0 °F 48.9 °F 47% 30.08 in 10.0 mi NW 8.1 mph - N/A   Clear
11:53 AM 70.0 °F 46.9 °F 44% 30.08 in 10.0 mi NNW 5.8 mph - N/A   Overcast
12:53 PM 75.0 °F 46.9 °F 37% 30.06 in 10.0 mi Variable 6.9 mph - N/A   Clear
1:53 PM 73.0 °F 45.0 °F 37% 30.06 in 10.0 mi Variable 6.9 mph - N/A   Mostly Cloudy
2:53 PM 75.0 °F 46.9 °F 37% 30.04 in 10.0 mi WNW 6.9 mph - N/A   Clear
3:53 PM 77.0 °F 48.0 °F 36% 30.02 in 10.0 mi WNW 8.1 mph - N/A   Clear
4:53 PM 77.0 °F 46.4 °F 34% 30.00 in 10.0 mi Variable 5.8 mph - N/A   Clear
5:53 PM 73.9 °F 48.0 °F 40% 30.00 in 10.0 mi North 10.4 mph - N/A   Clear
6:53 PM 68.0 °F 50.0 °F 52% 30.02 in 10.0 mi NW 11.5 mph - N/A   Clear
7:53 PM 64.9 °F 51.1 °F 61% 30.02 in 10.0 mi WNW 4.6 mph - N/A   Clear
8:53 PM 64.9 °F 50.0 °F 58% 30.02 in 10.0 mi NNW 8.1 mph - N/A   Clear
9:53 PM 61.0 °F 50.0 °F 67% 30.04 in 10.0 mi NW 5.8 mph - N/A   Clear
10:53 PM 57.9 °F 50.0 °F 75% 30.06 in 10.0 mi WNW 5.8 mph - N/A   Clear
11:53 PM 57.9 °F 48.9 °F 72% 30.06 in 10.0 mi West 3.5 mph - N/A   Clear